Home > Weather > Toruń > Past weeks

Flag for Poland Past Weather in Toruń, Poland — Yesterday and Last 2 Weeks

Now
72 °F

Overcast.


Feels Like: 73 °F
Forecast: 57 / 76 °F
Wind: 5 mph from West

Location: Torun

Current Time: Jun 26, 2016 at 5:35:28 PM

Latest Report: Jun 26, 2016 at 4:00 PM


Visibility: 25 mi

Pressure: 29.95 "Hg

Humidity: 75%

Dew Point: 63 °F

Location of ToruńLocation

Past Weather in Toruń — Graph

°F

Toruń Temperature Yesterday

Maximum temperature yesterday: 94 °F (at 4:00 PM)
Minimum temperature yesterday: 69 °F (at 11:00 PM)
Average temperature yesterday: 80 °F

High & Low Weather Summary for the Past Weeks

 TemperatureHumidityPressure
High94 °F (Jun 25, 4:00 PM)97% (Jun 21, 2:00 AM)30.32 "Hg (Jun 21, 2:00 AM)
Low42 °F (Jun 12, 4:00 AM)27% (Jun 11, 4:00 PM)29.35 "Hg (Jun 17, 11:00 AM)
Average68 °F63%29.91 "Hg
* Reported Jun 11 4:00 PM — Jun 26 4:00 PM, Toruń, Weather by CustomWeather, © 2016

Note: Actual official high and low records may vary slightly from our data, if they occured in-between our weather recording intervals... More about our weather records

Advertising

Toruń Weather History for the Previous 24 Hours

Scroll right to see more
 ConditionsComfort  
Time TempWeatherWind HumidityBarometerVisibility
4:00 PM
Sun, Jun 26
72 °FOvercast.5 mph75%29.95 "Hg25 mi
3:00 PM76 °FPartly sunny.6 mph67%29.92 "Hg16 mi
2:00 PM80 °FPartly sunny.3 mph58%29.91 "Hg19 mi
1:00 PM80 °FPartly sunny.2 mph58%29.91 "Hg22 mi
12:00 PM81 °FPartly sunny.3 mph60%29.91 "Hg14 mi
11:00 AM80 °FPartly sunny.3 mph62%29.89 "Hg16 mi
10:00 AM80 °FPassing clouds.2 mph59%29.87 "Hg16 mi
9:00 AM78 °FPassing clouds.3 mph64%29.86 "Hg15 mi
8:00 AM75 °FPassing clouds.2 mph72%29.85 "Hg17 mi
7:00 AM74 °FPassing clouds.1 mph78%29.86 "Hg18 mi
6:00 AM70 °FPassing clouds.2 mph84%29.88 "Hg14 mi
5:00 AM69 °FPassing clouds.2 mph86%29.86 "Hg14 mi
4:00 AM70 °FPassing clouds.3 mph83%29.84 "Hg16 mi
3:00 AM68 °FPassing clouds.2 mph93%29.83 "Hg7 mi
2:00 AM69 °FPassing clouds.1 mph90%29.83 "Hg10 mi
1:00 AM71 °FPassing clouds.2 mph85%29.87 "Hg17 mi
12:00 AM69 °FOvercast.3 mph91%29.86 "Hg8 mi
11:00 PM
Sat, Jun 25
69 °FThunderstorms. Passing clouds.2 mph89%29.87 "Hg9 mi
10:00 PM71 °FThundershowers. Overcast.2 mph83%29.88 "Hg7 mi
9:00 PM72 °FPartly sunny.3 mph78%29.80 "Hg14 mi
8:00 PM76 °FThunderstorms. Partly sunny.2 mph63%29.80 "Hg28 mi
7:00 PM83 °FThunderstorms. Overcast.5 mph45%29.85 "Hg19 mi
6:00 PM90 °FPartly sunny.5 mph39%29.80 "Hg19 mi
5:00 PM92 °FPartly sunny.6 mph36%29.81 "Hg15 mi
Weather by CustomWeather, © 2016

See weather overviewHow to use our weather pages